Temperature
21 21 21 20 20 20 19 19 19 19 19 19 19 19 19 19 18 18 18 18 18 18 18 18 18 18 18 18 18 17 17 17 17 17 17 17 17 17 16 16 16 16 16
22 21 21 21 20 20 20 19 19 19 19 19 19 19 19 19 18 18 18 18 18 18 18 18 18 18 18 17 17 17 17 17 17 17 17 17 16 16 16 16 16 16 16
22 21 21 21 20 20 20 20 19 19 19 19 19 19 19 18 18 18 18 18 18 18 18 18 18 18 18 17 17 17 17 17 17 16 16 16 16 16 16 16 16 16 16
22 21 21 21 21 20 20 19 19 19 19 19 18 18 18 18 18 18 18 18 18 18 18 18 17 17 17 17 17 17 17 17 16 16 16 16 16 16 16 16 16 16 16
22 21 21 21 20 20 20 19 19 19 18 18 18 18 18 18 18 18 18 18 18 18 18 18 17 17 17 17 17 17 17 16 16 16 16 16 16 16 15 15 15 15 15
22 21 21 21 20 20 19 19 19 19 18 18 18 18 18 18 18 18 18 18 18 18 18 18 17 17 17 17 17 17 16 16 16 16 16 15 15 15 15 15 15 15 15
21 21 21 20 20 20 19 19 19 18 18 18 18 18 18 18 18 17 17 17 17 17 17 17 17 17 17 17 17 16 16 16 16 15 15 15 15 15 15 15 14 14 14
21 21 20 20 20 19 19 19 19 18 18 18 18 18 17 17 17 17 17 17 17 17 17 17 17 17 17 16 16 16 16 16 15 15 15 15 15 15 14 14 14 14 14
21 21 20 20 20 19 19 19 18 18 18 18 18 17 17 17 17 17 17 17 17 17 17 16 16 16 16 16 16 16 16 16 15 15 15 15 15 14 14 14 14 14 14
20 20 20 20 19 19 19 18 18 18 18 18 17 17 17 17 17 17 17 17 16 16 16 16 16 16 16 16 15 15 15 15 15 15 15 15 14 14 14 14 14 13 13
20 20 20 20 19 19 19 18 18 18 17 17 17 17 17 17 17 17 16 16 16 16 16 16 16 16 16 16 15 15 15 15 15 15 14 14 14 14 14 14 14 13 13
19 19 19 19 19 19 18 18 18 17 17 17 17 17 17 16 16 16 16 16 16 16 16 16 16 15 15 15 15 15 15 15 14 14 14 14 14 14 14 13 13 13 13
19 19 19 18 18 18 18 18 17 17 17 17 17 16 16 16 16 16 16 16 16 16 15 15 15 15 15 15 15 14 14 14 14 14 14 14 13 13 13 13 13 13 13
19 19 18 18 18 18 18 17 17 17 17 17 16 16 16 16 16 16 16 16 15 15 15 15 15 14 14 14 14 14 14 14 13 13 13 13 13 13 13 12 12 12 12
19 18 18 18 17 17 17 17 17 17 17 16 16 16 16 16 16 16 15 15 15 15 15 15 14 14 14 14 14 14 13 13 13 13 13 13 13 12 12 12 12 12 11
18 18 18 17 17 17 17 17 16 16 16 16 16 16 16 16 15 15 15 15 15 14 14 14 14 14 14 13 13 13 13 13 13 13 13 12 12 12 12 12 11 11 11
17 17 17 17 17 17 16 16 16 16 16 16 16 16 15 15 15 15 15 14 14 14 14 14 13 13 13 13 13 13 13 13 12 12 12 12 12 12 11 11 11 11 10
17 17 17 17 16 16 16 16 16 16 16 16 15 15 15 15 15 15 14 14 14 14 14 13 13 13 13 13 13 13 12 12 12 12 12 12 11 11 11 11 10 10 10
17 16 16 16 16 16 15 15 15 15 15 15 15 15 15 15 14 14 14 14 14 14 13 13 13 13 13 13 12 12 12 12 12 11 11 11 11 11 10 10 10 10 9
16 16 15 15 15 15 15 15 15 15 15 15 15 14 14 14 14 14 14 14 13 13 13 13 13 13 13 12 12 12 12 11 11 11 11 11 11 10 10 10 10 9 9
15 15 15 15 15 15 15 15 15 14 14 14 14 14 14 14 14 13 13 13 13 13 13 13 13 12 12 12 12 12 11 11 11 11 10 10 10 10 10 9 9 9 9
15 14 14 14 14 14 14 14 14 14 14 14 14 14 13 13 13 13 13 13 13 13 12 12 12 12 12 12 11 11 11 11 10 10 10 10 10 10 9 9 9 8 8
14 14 14 14 14 14 14 14 14 14 14 13 13 13 13 13 13 12 12 12 12 12 12 12 12 12 11 11 11 11 10 10 10 10 10 9 9 9 9 9 8 8 8
14 14 14 14 14 14 14 13 13 13 13 13 13 13 13 12 12 12 12 12 12 12 11 11 11 11 11 11 10 10 10 10 9 9 9 9 9 9 8 8 8 8 8
14 14 13 13 14 13 13 13 13 13 13 13 13 12 12 12 12 12 11 11 11 11 11 11 10 10 10 10 10 9 9 9 9 9 9 9 8 8 8 8 8 7 7
13 13 13 13 13 13 13 13 13 13 13 12 12 12 12 12 11 11 11 11 10 10 10 10 10 10 9 9 9 9 9 9 9 8 8 8 8 8 8 8 7 7 7
Wind_Speed
9 8 7 6 6 5 5 5 4 4 4 4 4 4 3 3 3 3 3 2 2 2 1 1 2 1 1 1 0 1 1 2 2 3 2 2 1 2 2 4 5 6 7
10 8 8 6 6 6 6 5 5 4 4 4 4 4 4 4 4 4 4 3 3 3 3 2 2 1 1 1 1 1 2 2 3 3 3 2 3 3 2 3 4 5 6
9 8 7 7 7 7 6 5 5 5 4 4 4 4 4 3 3 3 4 3 3 3 3 3 4 2 2 2 2 2 2 2 2 2 3 2 2 1 1 3 3 3 5
9 9 8 8 8 8 7 6 6 5 5 5 4 4 4 3 3 3 3 4 3 4 4 4 4 4 4 4 3 3 3 2 1 1 2 2 2 2 0 2 3 3 4
9 9 8 7 7 6 6 6 6 5 6 5 4 3 3 3 3 3 3 4 4 3 4 4 4 5 6 5 4 3 3 2 2 2 2 2 2 1 2 2 3 3 4
8 8 7 7 6 6 6 6 6 5 5 4 4 4 4 4 5 6 4 4 4 4 4 4 4 4 5 6 6 5 5 4 4 3 3 3 5 4 3 3 2 2 4
8 8 7 7 7 6 6 5 6 5 4 4 4 4 4 5 6 6 6 4 4 4 4 4 4 4 4 3 3 4 5 6 7 6 5 6 5 5 4 3 4 4 5
7 7 7 7 7 6 6 6 6 5 5 4 4 4 4 5 6 6 6 4 3 4 5 5 4 4 4 3 3 3 5 5 7 6 7 8 7 6 5 5 5 4 4
8 7 8 8 7 7 7 7 6 5 5 5 4 4 4 5 6 6 4 2 2 4 4 3 4 4 6 5 4 5 6 6 7 8 9 8 8 7 5 2 1 1 4
7 7 7 7 8 8 7 6 5 5 5 5 4 4 5 5 5 4 4 2 3 4 4 4 6 6 7 6 5 6 7 7 5 4 5 6 6 6 6 5 5 4 3
6 6 6 7 7 7 6 5 5 5 4 4 5 4 5 5 5 5 5 4 4 4 4 4 5 7 7 6 6 6 9 7 4 4 4 4 4 4 4 4 5 5 5
4 5 5 5 5 5 5 5 5 5 5 5 5 5 4 5 6 6 7 7 6 5 5 5 6 7 7 6 5 7 7 5 2 2 3 4 4 5 5 5 6 6 6
4 4 4 4 4 4 5 6 5 5 5 5 5 5 5 4 5 8 8 8 8 6 6 7 6 6 5 5 6 6 4 2 2 3 5 6 5 5 4 3 4 4 5
4 4 4 4 3 3 3 4 5 5 6 5 5 6 5 4 4 4 4 5 6 5 5 6 6 5 4 4 4 4 3 3 4 4 5 4 3 3 3 3 3 3 3
3 3 3 4 4 3 3 3 5 6 7 7 6 5 5 6 7 7 5 4 4 4 2 2 1 1 2 2 2 3 2 2 3 4 4 3 3 3 4 3 3 2 3
3 3 3 3 3 3 2 2 3 4 5 6 7 6 5 7 6 6 7 6 5 4 2 2 3 3 3 4 4 4 3 3 4 4 3 4 4 4 4 3 2 3 4
3 3 3 3 3 3 3 3 3 3 4 4 5 5 6 6 6 5 5 5 4 5 3 4 4 4 4 4 4 4 4 5 4 3 4 4 4 4 3 3 3 3 4
1 2 2 3 3 3 3 3 3 3 3 3 3 5 6 6 5 5 4 3 1 3 4 5 5 5 5 5 5 4 4 4 3 3 3 3 3 3 3 4 4 4 4
1 1 2 2 2 2 2 3 3 3 3 3 2 3 4 4 3 3 4 3 3 4 4 4 5 5 5 4 4 4 3 3 3 2 3 3 3 3 4 4 4 4 3
1 2 1 1 1 1 1 2 2 2 2 2 3 3 2 1 1 2 3 4 4 4 4 4 4 4 4 3 3 3 2 2 2 3 3 3 3 3 4 4 3 3 3
1 2 3 2 1 2 2 2 3 2 2 2 3 3 4 3 4 3 3 4 4 4 4 4 4 3 3 3 3 2 2 3 3 3 3 3 3 3 3 3 4 4 4
2 2 2 2 2 2 2 2 2 2 2 2 2 2 4 3 3 3 3 3 3 3 3 3 3 3 3 3 3 3 3 3 3 3 3 3 3 3 3 3 3 3 3
2 2 2 2 2 3 2 2 2 2 2 2 2 2 1 2 2 2 3 3 2 2 2 2 2 2 2 2 2 3 3 4 4 3 3 3 3 3 3 3 3 3 4
1 2 2 2 2 1 2 2 1 2 1 1 1 1 1 2 2 2 2 2 1 1 1 1 1 2 2 0 0 1 1 2 2 2 3 3 3 4 3 3 4 4 4
0 0 1 1 2 2 1 1 1 1 1 1 1 1 0 1 1 0 1 1 0 0 0 0 0 0 1 0 1 1 1 1 2 2 2 3 4 4 4 3 3 3 3
0 0 1 0 1 1 1 1 0 0 0 0 0 0 0 0 0 0 1 1 1 1 1 1 2 2 3 2 2 2 2 2 2 2 2 2 3 3 3 3 3 3 3
Wind_Direction
192 194 195 193 190 188 195 200 200 195 185 183 187 188 198 203 200 188 204 201 195 227 242 211 243 251 261 276 198 161 171 165 219 269 264 269 234 252 241 236 241 239 247
194 191 193 191 184 189 198 199 194 190 185 184 183 187 200 201 194 191 205 205 203 217 231 224 242 232 239 245 227 236 233 205 197 248 272 268 250 249 247 246 249 250 250
189 187 188 187 188 195 199 195 189 188 191 189 188 195 203 199 193 198 196 200 207 214 213 214 226 209 234 240 232 243 247 247 203 218 260 261 265 283 284 274 269 263 260
185 188 193 196 197 198 198 194 193 193 193 194 196 197 197 199 201 208 202 199 208 216 217 216 220 211 220 227 234 237 233 235 227 231 264 273 273 283 293 266 285 273 266
181 188 197 197 194 193 196 199 197 197 199 190 184 189 194 199 217 213 214 211 209 219 229 228 230 222 223 224 231 224 213 215 222 232 254 271 276 286 263 246 257 276 274
178 189 191 188 190 194 199 199 194 197 196 185 189 195 206 230 227 214 209 217 215 215 227 241 245 236 239 238 235 222 205 207 219 221 236 242 254 247 245 241 244 273 282
184 191 188 186 188 192 191 187 192 195 186 187 198 200 214 236 231 221 213 213 222 225 226 235 249 248 237 242 250 244 242 234 216 209 223 236 238 235 226 241 235 237 248
186 192 190 187 191 192 190 193 198 192 189 198 206 211 222 247 244 235 222 215 229 241 235 229 232 248 252 234 243 260 258 254 239 228 228 237 239 230 215 222 228 243 266
190 196 195 192 189 189 195 201 200 193 198 207 207 209 220 250 249 233 220 224 242 262 257 236 227 238 251 237 232 251 264 268 261 246 241 246 249 242 220 200 234 244 274
196 197 193 191 191 195 198 199 197 195 205 207 214 217 220 237 242 223 208 213 239 258 267 259 244 242 253 238 225 232 251 260 265 269 265 272 266 262 238 213 213 223 247
197 192 184 189 192 193 192 188 188 194 197 207 219 229 228 231 236 228 211 207 225 241 251 258 260 259 258 245 227 227 238 245 249 249 257 266 270 267 256 236 220 214 225
180 183 183 188 193 193 185 192 193 192 199 215 222 235 241 238 237 238 226 221 221 230 248 254 258 261 254 246 237 246 245 241 245 252 264 266 265 264 262 249 238 232 232
167 182 186 186 193 190 186 194 197 197 207 220 221 234 245 245 244 241 235 234 231 234 253 260 270 270 263 258 254 256 249 226 225 247 256 261 260 260 263 265 262 254 258
164 181 181 182 197 205 198 199 201 205 213 221 224 232 242 245 245 243 245 248 249 252 266 272 267 261 253 261 276 273 249 228 223 242 257 268 277 273 264 258 262 263 265
167 181 188 192 198 212 221 222 220 221 215 214 223 223 226 241 248 233 226 240 240 243 254 278 284 278 270 275 277 274 260 254 250 253 255 268 271 267 271 266 258 257 257
179 190 194 204 205 206 209 276 293 260 250 229 222 216 234 240 243 231 230 231 233 216 185 239 248 248 250 253 256 262 256 252 252 249 249 252 257 261 269 274 262 254 261
197 206 202 203 206 210 207 215 257 303 299 263 246 235 229 236 237 234 232 226 224 188 200 232 238 241 244 245 246 246 251 252 247 244 251 255 258 262 262 264 264 264 264
192 220 216 211 210 213 211 220 222 229 257 274 267 248 242 238 230 221 212 183 225 208 228 236 238 239 240 241 243 244 249 259 257 251 254 259 260 259 265 268 264 263 267
191 261 255 236 214 211 213 218 224 226 230 243 259 265 249 241 241 234 184 199 224 233 235 241 243 244 246 245 246 245 245 251 257 256 260 256 253 249 258 264 266 269 268
221 265 261 235 225 222 206 215 224 224 221 227 238 250 243 194 239 244 220 234 237 240 241 244 247 246 244 245 246 245 250 259 266 264 265 259 249 241 248 257 263 267 267
204 234 242 244 229 223 219 224 227 224 222 226 242 242 209 209 226 231 226 229 234 239 242 245 247 244 239 242 243 239 240 256 261 264 266 263 256 249 251 248 251 256 266
199 212 218 229 249 247 239 230 222 215 208 219 251 247 211 211 223 228 233 237 235 233 231 232 244 249 242 234 229 229 237 251 258 259 262 262 259 254 250 249 252 258 264
218 226 226 234 240 245 243 238 220 207 204 218 223 238 234 235 244 238 244 247 240 237 232 226 240 256 256 232 211 211 217 234 240 236 241 251 252 249 247 249 251 260 262
242 228 221 225 230 228 230 233 234 233 222 222 227 236 241 234 235 239 254 270 266 272 259 217 226 248 255 252 279 223 227 244 251 241 233 238 248 254 252 253 253 256 257
299 213 209 219 230 232 223 217 228 240 244 233 207 196 228 237 255 284 314 327 359 70 342 350 354 278 140 163 302 308 294 288 285 270 246 232 239 247 249 251 258 268 267
321 332 317 267 229 211 183 174 191 187 141 161 135 144 212 255 34 29 0 3 17 25 14 16 24 49 52 31 7 356 355 344 320 300 268 237 241 253 252 247 254 264 268
Height
1526 1527 1528 1529 1530 1531 1532 1532 1533 1534 1535 1535 1535 1536 1536 1536 1537 1537 1537 1537 1537 1537 1537 1537 1537 1537 1537 1536 1536 1535 1535 1534 1533 1532 1531 1530 1529 1528 1527 1527 1525 1524 1523
1523 1525 1526 1527 1527 1528 1529 1530 1531 1532 1533 1533 1533 1533 1534 1534 1534 1534 1534 1535 1535 1535 1535 1535 1535 1535 1534 1534 1534 1533 1532 1532 1531 1529 1528 1528 1527 1526 1525 1524 1523 1522 1520
1521 1522 1523 1524 1525 1525 1526 1528 1528 1529 1530 1530 1531 1531 1531 1531 1532 1532 1532 1532 1532 1532 1533 1532 1532 1532 1532 1531 1531 1530 1529 1529 1528 1527 1525 1525 1524 1523 1522 1521 1520 1519 1517
1518 1519 1520 1521 1522 1523 1524 1525 1526 1527 1527 1528 1528 1528 1529 1529 1529 1529 1529 1529 1529 1529 1529 1529 1529 1529 1528 1528 1527 1527 1526 1526 1525 1524 1523 1522 1521 1520 1519 1517 1516 1515 1514
1514 1515 1517 1518 1519 1521 1522 1522 1523 1524 1525 1525 1525 1525 1526 1526 1526 1526 1526 1526 1526 1525 1525 1525 1525 1525 1525 1524 1524 1523 1523 1522 1521 1520 1519 1518 1517 1516 1515 1514 1513 1511 1510
1511 1512 1514 1515 1516 1517 1519 1520 1521 1521 1522 1522 1522 1523 1523 1523 1523 1523 1523 1523 1523 1522 1522 1521 1522 1521 1521 1521 1520 1520 1519 1518 1517 1516 1515 1514 1513 1513 1512 1511 1509 1508 1506
1508 1510 1511 1512 1513 1514 1516 1517 1517 1518 1518 1519 1519 1519 1519 1520 1520 1520 1520 1520 1519 1518 1518 1518 1517 1517 1517 1516 1516 1515 1515 1514 1514 1513 1512 1510 1510 1509 1508 1507 1505 1504 1503
1505 1507 1508 1509 1510 1511 1513 1513 1514 1514 1515 1515 1515 1516 1516 1516 1516 1516 1516 1516 1515 1514 1514 1514 1513 1513 1512 1512 1512 1511 1510 1509 1509 1508 1507 1506 1506 1505 1504 1503 1501 1500 1499
1502 1503 1504 1506 1507 1508 1509 1509 1510 1511 1511 1512 1512 1512 1512 1512 1512 1512 1512 1511 1511 1511 1510 1510 1509 1509 1508 1508 1508 1507 1505 1505 1505 1504 1503 1502 1501 1500 1499 1498 1497 1495 1493
1499 1500 1501 1502 1503 1504 1505 1506 1507 1507 1508 1509 1509 1509 1509 1509 1509 1509 1508 1508 1507 1506 1506 1505 1505 1504 1504 1504 1503 1502 1501 1500 1500 1499 1498 1497 1496 1495 1494 1493 1492 1490 1488
1495 1496 1497 1498 1499 1500 1501 1502 1503 1504 1505 1505 1505 1505 1505 1505 1505 1505 1504 1503 1503 1502 1501 1500 1500 1500 1499 1499 1498 1497 1496 1496 1495 1494 1493 1492 1491 1490 1489 1488 1487 1486 1484
1492 1493 1494 1495 1496 1497 1498 1498 1499 1500 1501 1501 1501 1501 1501 1501 1501 1500 1500 1499 1499 1498 1496 1496 1495 1495 1494 1493 1493 1492 1491 1490 1489 1488 1487 1486 1485 1484 1483 1483 1482 1480 1479
1490 1491 1491 1492 1493 1494 1494 1495 1496 1496 1497 1497 1497 1497 1496 1497 1497 1496 1496 1495 1494 1493 1492 1492 1491 1490 1489 1489 1488 1487 1486 1485 1484 1483 1482 1481 1480 1479 1478 1477 1476 1475 1474
1487 1488 1488 1489 1490 1491 1491 1491 1492 1492 1492 1493 1492 1492 1492 1492 1491 1491 1490 1489 1488 1487 1487 1486 1486 1485 1484 1484 1483 1482 1481 1480 1479 1478 1477 1476 1475 1474 1473 1471 1470 1469 1467
1484 1485 1485 1486 1487 1487 1487 1488 1488 1488 1488 1488 1488 1488 1488 1487 1487 1487 1486 1485 1484 1483 1483 1481 1481 1480 1478 1478 1478 1477 1476 1475 1474 1473 1472 1470 1469 1469 1467 1466 1465 1463 1462
1481 1482 1483 1483 1484 1484 1484 1485 1485 1485 1485 1485 1485 1484 1484 1484 1483 1482 1482 1481 1480 1479 1478 1476 1476 1476 1474 1474 1473 1472 1472 1471 1470 1469 1467 1466 1465 1464 1462 1461 1460 1458 1456
1479 1479 1480 1480 1481 1481 1481 1481 1481 1481 1481 1481 1480 1480 1480 1479 1479 1478 1478 1477 1476 1475 1474 1472 1472 1471 1470 1470 1469 1468 1467 1466 1465 1464 1462 1461 1460 1459 1457 1456 1454 1453 1452
1477 1477 1477 1477 1477 1477 1477 1477 1477 1477 1476 1476 1476 1476 1476 1475 1474 1474 1474 1473 1471 1470 1469 1468 1467 1467 1466 1465 1464 1463 1462 1461 1460 1458 1457 1456 1455 1454 1452 1451 1449 1448 1447
1474 1474 1474 1474 1473 1473 1473 1473 1474 1473 1473 1472 1472 1472 1472 1471 1470 1469 1469 1468 1466 1466 1465 1464 1463 1463 1462 1461 1459 1458 1457 1456 1455 1454 1452 1451 1450 1449 1448 1446 1444 1443 1442
1471 1471 1471 1470 1470 1470 1469 1470 1470 1469 1468 1468 1468 1468 1467 1466 1465 1464 1463 1463 1462 1461 1460 1459 1459 1458 1457 1456 1455 1453 1452 1451 1449 1448 1447 1446 1445 1444 1442 1441 1440 1438 1437
1468 1468 1468 1468 1467 1466 1466 1466 1466 1465 1464 1464 1464 1464 1463 1462 1461 1460 1459 1458 1457 1456 1455 1455 1454 1452 1452 1451 1449 1448 1447 1445 1444 1443 1442 1441 1439 1438 1437 1436 1435 1434 1432
1465 1464 1465 1465 1464 1464 1463 1463 1463 1462 1461 1461 1460 1460 1460 1459 1457 1456 1455 1454 1453 1452 1451 1450 1449 1447 1446 1445 1444 1443 1441 1439 1438 1437 1436 1435 1434 1433 1432 1430 1429 1428 1427
1462 1462 1462 1461 1462 1461 1461 1460 1459 1459 1458 1457 1457 1456 1456 1455 1454 1452 1451 1450 1449 1448 1447 1445 1444 1443 1441 1440 1439 1437 1435 1433 1432 1431 1430 1429 1428 1427 1426 1425 1424 1423 1422
1459 1459 1459 1458 1458 1458 1457 1457 1456 1456 1455 1454 1454 1453 1452 1452 1451 1449 1448 1446 1445 1443 1442 1440 1439 1437 1436 1434 1433 1431 1430 1429 1427 1426 1425 1424 1423 1422 1421 1419 1418 1417 1417
1457 1456 1456 1456 1455 1455 1455 1454 1453 1452 1452 1451 1451 1450 1449 1448 1447 1446 1444 1443 1441 1439 1437 1436 1434 1432 1431 1429 1428 1426 1425 1423 1422 1421 1420 1419 1418 1417 1416 1414 1413 1413 1412
1455 1455 1454 1454 1453 1453 1452 1451 1450 1450 1449 1448 1448 1447 1446 1445 1443 1442 1440 1439 1437 1435 1434 1432 1430 1428 1426 1424 1423 1421 1420 1418 1417 1416 1415 1414 1413 1412 1411 1410 1409 1408 1407